EST,Max TemperatureF,Mean TemperatureF,Min TemperatureF,Max Dew PointF,MeanDew PointF,Min DewpointF,Max Humidity, Mean Humidity, Min Humidity, Max Sea Level PressureIn, Mean Sea Level PressureIn, Min Sea Level PressureIn, Max VisibilityMiles, Mean VisibilityMiles, Min VisibilityMiles, Max Wind SpeedMPH, Mean Wind SpeedMPH, Max Gust SpeedMPH,PrecipitationIn, CloudCover, Events, WindDirDegrees
2012-12-1,39,36,32,37,32,22,93,87,64,30.60,30.54,30.47,10,7,2,8,4,,0.01,8,Snow,25
2012-12-2,60,48,37,52,45,37,100,85,63,30.47,30.29,30.07,10,8,4,16,4,24,0.01,7,Rain,206
2012-12-3,60,46,33,48,43,31,97,79,49,30.29,30.13,30.04,10,8,3,16,10,23,0.00,2,,258
2012-12-4,55,42,30,53,40,28,100,92,80,30.33,30.25,30.03,10,4,0,16,3,,0.01,5,Fog-Rain,190
2012-12-5,57,47,37,56,42,19,94,71,45,30.11,29.95,29.88,10,8,3,16,12,28,0.04,6,Rain,260
2012-12-6,39,30,21,20,17,14,89,60,38,30.32,30.27,30.13,10,10,9,9,5,18,0.00,0,,310
2012-12-7,48,34,21,43,33,18,97,85,63,30.30,30.16,30.05,10,9,3,5,1,,0.02,6,Rain,200
2012-12-8,51,46,42,50,46,42,100,94,88,30.04,29.94,29.83,7,3,0,7,2,,0.33,7,Fog-Rain,316
2012-12-9,51,46,41,46,39,29,100,81,50,30.27,30.17,29.98,10,8,3,10,5,18,0.11,5,Rain,13
2012-12-10,61,52,44,59,54,43,100,93,87,30.11,29.76,29.52,10,4,2,20,11,30,2.01,8,Rain-Thunderstorm,198
2012-12-11,57,46,35,55,40,22,100,74,44,30.15,29.80,29.55,10,9,3,12,6,22,0.04,5,Rain,287
2012-12-12,39,34,28,26,23,20,92,67,46,30.43,30.33,30.17,10,10,9,12,4,,0.00,0,,318
2012-12-13,46,36,26,26,23,20,92,70,37,30.46,30.39,30.30,10,10,7,6,1,,0.00,0,,330
2012-12-14,48,36,24,31,26,21,92,68,46,30.28,30.18,30.07,10,8,5,14,3,23,0.00,0,,266
2012-12-15,43,34,26,29,25,21,93,71,42,30.33,30.27,30.18,10,9,5,8,2,,0.00,0,,19
2012-12-16,39,34,28,37,32,25,100,87,64,30.32,30.15,30.02,10,5,2,14,6,22,0.23,8,Rain,74
2012-12-17,48,44,39,46,43,37,97,93,87,30.01,29.91,29.73,10,3,2,15,9,,0.26,8,Rain,46
2012-12-18,54,49,44,54,47,41,100,90,80,29.73,29.50,29.41,10,6,1,13,8,21,0.32,8,Rain,236
2012-12-19,48,44,37,41,32,28,83,65,52,30.01,29.65,29.45,10,10,10,18,11,37,0.00,6,,306
2012-12-20,43,38,32,35,31,27,93,79,62,30.20,30.12,30.02,10,10,6,10,4,,0.00,5,,355
2012-12-21,55,46,37,52,40,28,93,83,65,29.96,29.46,29.14,10,8,2,30,14,46,0.58,7,Rain,152
2012-12-22,39,34,30,34,24,15,87,64,46,29.67,29.42,29.26,10,10,10,21,11,34,0.02,5,Rain,268
2012-12-23,39,34,28,24,21,16,82,57,48,29.89,29.83,29.68,10,10,10,18,12,25,0.00,1,,262
2012-12-24,39,31,23,28,22,19,89,70,45,30.07,30.02,29.90,10,10,4,9,3,,0.00,1,Snow,259
2012-12-25,35,32,27,34,30,21,100,90,78,30.21,30.03,29.95,10,6,2,7,3,,0.06,7,Rain-Snow,5
2012-12-26,37,30,23,33,26,15,93,77,62,30.30,30.15,29.82,10,8,2,17,7,26,0.29,5,Rain-Snow,50
2012-12-27,51,42,32,49,38,28,100,90,81,29.76,29.42,29.20,10,5,1,26,15,43,0.44,8,Rain-Snow,333
2012-12-28,37,32,27,27,22,19,80,68,52,30.02,29.88,29.63,10,10,10,16,10,28,0.01,2,,297
2012-12-29,35,30,24,33,29,21,96,88,70,30.02,29.63,29.30,10,4,0,12,4,20,0.82,6,Fog-Rain-Snow,19
2012-12-30,32,26,21,30,22,11,93,77,61,30.00,29.62,29.36,10,8,1,17,11,28,0.02,4,Snow,307
2012-12-31,35,27,19,26,19,10,73,67,60,30.07,29.96,29.80,10,10,10,16,9,24,0.00,3,,257